TimePST,TemperatureF,Dew PointF,Humidity,Sea Level PressureIn,VisibilityMPH,Wind Direction,Wind SpeedMPH,Gust SpeedMPH,PrecipitationIn,Events,Conditions,WindDirDegrees,DateUTC
12:53 AM,59.0,39.0,48,29.77,10.0,West,15.0,-,N/A,,Clear,280,2012-12-14 08:53:00
1:53 AM,60.1,39.0,46,29.78,10.0,West,15.0,-,N/A,,Partly Cloudy,280,2012-12-14 09:53:00
2:53 AM,59.0,39.0,48,29.79,10.0,West,16.1,-,N/A,,Scattered Clouds,280,2012-12-14 10:53:00
3:53 AM,59.0,37.9,46,29.79,10.0,West,19.6,-,N/A,,Clear,280,2012-12-14 11:53:00
4:53 AM,59.0,37.0,44,29.81,10.0,West,19.6,26.5,N/A,,Clear,280,2012-12-14 12:53:00
5:53 AM,59.0,37.9,46,29.83,7.0,WNW,16.1,-,N/A,,Partly Cloudy,290,2012-12-14 13:53:00
6:53 AM,53.4,39.0,58,29.86,7.0,WNW,13.8,23.0,N/A,,Scattered Clouds,300,2012-12-14 14:53:00
7:53 AM,57.7,37.0,46,29.87,7.0,WNW,15.0,-,N/A,,Scattered Clouds,290,2012-12-14 15:53:00
8:53 AM,57.9,39.9,51,29.89,7.0,WNW,16.1,-,N/A,,Scattered Clouds,290,2012-12-14 16:53:00
9:53 AM,58.3,41.0,53,29.91,7.0,WNW,18.4,23.0,N/A,,Mostly Cloudy,290,2012-12-14 17:53:00
10:53 AM,59.5,41.0,50,29.92,7.0,West,12.7,21.9,N/A,,Mostly Cloudy,270,2012-12-14 18:53:00
11:53 AM,58.8,39.7,49,29.91,7.0,WSW,10.4,-,N/A,,Mostly Cloudy,240,2012-12-14 19:53:00
12:53 PM,58.6,43.0,56,29.90,7.0,WSW,15.0,-,N/A,,Mostly Cloudy,240,2012-12-14 20:53:00
1:53 PM,59.0,39.0,48,29.89,7.0,WSW,10.4,-,N/A,,Overcast,240,2012-12-14 21:53:00
2:53 PM,55.2,45.0,68,29.91,5.0,West,9.2,-,0.01,Rain,Light Rain,260,2012-12-14 22:53:00
3:53 PM,54.9,45.0,69,29.90,7.0,SSW,3.5,-,0.00,Rain,Light Rain,210,2012-12-14 23:53:00
4:53 PM,57.9,46.0,65,29.90,10.0,ESE,3.5,-,0.00,,Overcast,110,2012-12-15 00:53:00
5:53 PM,64.9,46.0,50,29.90,10.0,ESE,5.8,-,0.00,,Overcast,110,2012-12-15 01:53:00
6:43 PM,62.6,46.4,55,29.92,4.0,SE,5.8,-,0.00,Rain,Light Rain,140,2012-12-15 02:43:00
6:53 PM,64.0,46.9,54,29.91,3.0,ESE,5.8,-,0.00,Rain,Light Rain,110,2012-12-15 02:53:00
7:19 PM,60.8,46.4,59,29.92,8.0,East,9.2,-,0.00,Rain,Light Rain,80,2012-12-15 03:19:00
7:53 PM,61.0,48.0,62,29.92,7.0,East,8.1,-,0.00,Rain,Light Rain,80,2012-12-15 03:53:00
8:04 PM,64.4,48.2,56,29.93,5.0,SE,8.1,-,0.01,Rain,Light Rain,130,2012-12-15 04:04:00
8:14 PM,64.4,48.2,56,29.93,4.0,ESE,9.2,-,0.02,Rain,Light Rain,120,2012-12-15 04:14:00
8:25 PM,64.4,48.2,56,29.93,4.0,East,8.1,-,0.03,Rain,Light Rain,100,2012-12-15 04:25:00
8:35 PM,60.8,48.2,63,29.93,5.0,East,8.1,-,0.03,Rain,Light Rain,90,2012-12-15 04:35:00
8:45 PM,59.0,48.2,67,29.94,6.0,East,10.4,-,0.03,Rain,Light Rain,80,2012-12-15 04:45:00
8:53 PM,59.0,48.9,69,29.93,8.0,ENE,8.1,-,0.03,Rain,Light Rain,70,2012-12-15 04:53:00
9:19 PM,51.8,48.2,88,29.95,5.0,NE,8.1,-,0.04,Rain,Rain,40,2012-12-15 05:19:00
9:53 PM,51.1,48.9,92,29.95,8.0,NE,12.7,-,0.06,Rain,Light Rain,40,2012-12-15 05:53:00
10:25 PM,51.8,48.2,88,29.96,10.0,NE,12.7,-,0.00,,Overcast,50,2012-12-15 06:25:00
10:53 PM,52.0,48.0,86,29.96,10.0,NE,12.7,-,0.00,,Overcast,50,2012-12-15 06:53:00
11:41 PM,51.8,48.2,88,29.96,10.0,ENE,12.7,-,N/A,,Overcast,60,2012-12-15 07:41:00
11:53 PM,54.0,48.0,80,29.94,10.0,NE,13.8,-,N/A,,Overcast,50,2012-12-15 07:53:00